This demonstration page uses our WeatherBlox Daily Observations layout. Learn more.

40.92945, -100.16068

Hourly Observations for May 13, 2017

Temp ( °F °C ) Dew Point ( °F °C ) Humidity (%) Winds ( mph kmh ) Pressure ( in mb ) Visibility ( mi km ) Precip ( " mm )
12:15 am 00:15 Clear 54 12.1 42 5.5 64 64 S 10 17 30 1016 10 16.09344 0 0
12:35 am 00:35 Clear 55 12.8 42 5.5 61 61 S 10 17 30 1016 10 16.09344 0 0
12:55 am 00:55 Clear 55 12.5 42 5.5 63 63 S 10 17 30 1016 10 16.09344 0 0
1:15 am 01:15 Clear 54 12 42 5.5 65 65 S 9 15 30 1016 10 16.09344 0 0
1:35 am 01:35 Clear 53 11.9 42 5.4 65 65 S 9 15 30 1016 10 16.09344 0 0
1:55 am 01:55 Clear 53 11.6 42 5.4 66 66 S 9 15 30 1016 10 16.09344 0 0
2:15 am 02:15 Clear 51 10.7 42 5.5 71 71 S 9 15 30 1016 10 16.09344 0 0
2:35 am 02:35 Clear 51 10.3 42 5.3 71 71 S 7 11 29.97 1015 10 16.09344 0 0
2:55 am 02:55 Clear 48 9 41 5 76 76 S 8 13 30 1016 10 16.09344 0 0
3:15 am 03:15 Clear 47 8.6 41 4.9 78 78 S 7 11 30 1016 10 16.09344 0 0
3:35 am 03:35 Clear 47 8.6 40 4.7 77 77 S 5 7 30 1016 10 16.09344 0 0
3:55 am 03:55 Clear 48 9 40 4.2 72 72 S 7 11 30 1016 10 16.09344 0 0
4:15 am 04:15 Clear 48 9.1 40 4.6 74 74 S 6 9 30 1016 10 16.09344 0 0
4:35 am 04:35 Clear 48 8.8 40 4.3 74 74 S 5 7 30 1016 10 16.09344 0 0
4:55 am 04:55 Clear 46 7.7 39 4 78 78 S 6 9 30 1016 10 16.09344 0 0
5:15 am 05:15 Clear 45 7 39 3.9 81 81 S 8 13 30 1016 10 16.09344 0 0
5:35 am 05:35 Clear 45 7.2 39 4.1 81 81 S 7 11 29.97 1015 10 16.09344 0 0
5:55 am 05:55 Clear 46 7.5 39 4.1 79 79 S 8 13 29.97 1015 10 16.09344 0 0
6:15 am 06:15 Clear 45 7.2 39 3.8 79 79 SSE 6 9 29.97 1015 10 16.09344 0 0
6:35 am 06:35 Sunny 46 7.6 39 4 78 78 SSE 6 9 29.97 1015 10 16.09344 0 0
6:55 am 06:55 Sunny 46 7.9 39 4 77 77 SE 6 9 29.97 1015 10 16.09344 0 0
7:15 am 07:15 Sunny 47 8.2 41 4.9 80 80 SSE 6 9 29.97 1015 10 16.09344 0 0
7:35 am 07:35 Sunny 50 10.1 42 5.6 74 74 S 8 13 29.94 1014 10 16.09344 0 0
7:55 am 07:55 Sunny 54 12 42 5.7 66 66 S 9 15 29.94 1014 10 16.09344 0 0
8:15 am 08:15 Sunny 56 13.5 42 5.5 59 59 S 10 17 29.91 1013 10 16.09344 0 0
8:35 am 08:35 Sunny 58 14.3 42 5.5 56 56 S 10 17 29.88 1012 10 16.09344 0 0
8:55 am 08:55 Sunny 60 15.3 43 5.9 54 54 S 12 19 29.88 1012 10 16.09344 0 0
9:15 am 09:15 Sunny 62 16.5 42 5.8 49 49 S 15 24 29.85 1011 10 16.09344 0 0
9:35 am 09:35 Sunny 62 16.8 42 5.6 48 48 S 17 28 29.85 1011 10 16.09344 0 0
9:55 am 09:55 Sunny 64 17.5 40 4.6 43 43 S 20 31 29.85 1011 10 16.09344 0 0
10:15 am 10:15 Sunny 64 18 40 4.2 40 40 S 21 33 29.85 1011 10 16.09344 0 0
10:35 am 10:35 Sunny 65 18.5 40 4.7 40 40 S 21 33 29.85 1011 10 16.09344 0 0
10:55 am 10:55 Partly Cloudy 67 19.2 42 5.4 41 41 S 20 31 29.83 1010 10 16.09344 0 0
11:15 am 11:15 Sunny 67 19.5 40 4.5 37 37 SSE 22 35 29.8 1009 10 16.09344 0 0
11:35 am 11:35 Sunny 68 20 40 4.2 35 35 S 21 33 29.8 1009 10 16.09344 0 0
11:55 am 11:55 Sunny 69 20.3 39 3.7 34 34 SSE 22 35 29.8 1009 10 16.09344 0 0
12:15 pm 12:15 Sunny 70 20.9 39 4 33 33 S 22 35 29.77 1008 10 16.09344 0 0
12:35 pm 12:35 Sunny 71 21.4 41 4.8 34 34 S 22 35 29.77 1008 10 16.09344 0 0
12:55 pm 12:55 Sunny 71 21.7 42 5.7 35 35 S 20 31 29.71 1006 10 16.09344 0 0
1:15 pm 13:15 Sunny 72 22.1 43 5.9 35 35 SSE 22 35 29.71 1006 10 16.09344 0 0
1:35 pm 13:35 Sunny 73 22.5 44 6.9 37 37 S 23 37 29.71 1006 10 16.09344 0 0
1:55 pm 13:55 Sunny 73 23 44 6.8 35 35 S 24 39 29.68 1005 10 16.09344 0 0
2:15 pm 14:15 Sunny 74 23.4 46 7.6 36 36 S 23 37 29.68 1005 10 16.09344 0 0
2:35 pm 14:35 Sunny 74 23.2 46 7.9 38 38 S 17 28 29.68 1005 10 16.09344 0 0
2:55 pm 14:55 Sunny 75 23.8 47 8.5 38 38 S 22 35 29.68 1005 10 16.09344 0 0
3:15 pm 15:15 Sunny 75 24 48 8.7 38 38 S 24 39 29.65 1004 10 16.09344 0 0
3:35 pm 15:35 Sunny 76 24.6 48 8.8 37 37 S 23 37 29.62 1003 10 16.09344 0 0
3:55 pm 15:55 Sunny 76 24.6 49 9.4 38 38 S 24 39 29.62 1003 10 16.09344 0 0
4:15 pm 16:15 Sunny 76 24.6 48 9.1 37 37 SSE 26 43 29.59 1002 10 16.09344 0 0
4:35 pm 16:35 Sunny 76 24.6 49 9.6 39 39 S 22 35 29.59 1002 10 16.09344 0 0
4:55 pm 16:55 Sunny 76 24.7 49 9.6 38 38 S 25 41 29.59 1002 10 16.09344 0 0
5:15 pm 17:15 Sunny 77 25 49 9.7 38 38 S 26 43 29.59 1002 10 16.09344 0 0
5:35 pm 17:35 Sunny 77 25 50 10.1 39 39 S 25 41 29.59 1002 10 16.09344 0 0
5:55 pm 17:55 Sunny 76 24.7 50 9.8 39 39 S 25 41 29.59 1002 10 16.09344 0 0
6:15 pm 18:15 Sunny 76 24.7 50 9.9 39 39 S 22 35 29.59 1002 10 16.09344 0 0
6:35 pm 18:35 Sunny 76 24.6 51 10.3 41 41 S 23 37 29.59 1002 10 16.09344 0 0
6:55 pm 18:55 Sunny 75 24 51 10.3 42 42 S 20 31 29.56 1001 10 16.09344 0 0
7:15 pm 19:15 Sunny 75 24.1 51 10.3 42 42 S 20 31 29.56 1001 10 16.09344 0 0
7:35 pm 19:35 Sunny 74 23.3 50 10.2 44 44 S 17 28 29.59 1002 10 16.09344 0 0
7:55 pm 19:55 Sunny 73 22.6 50 10.1 45 45 S 22 35 29.59 1002 10 16.09344 0 0
8:15 pm 20:15 Sunny 72 22 51 10.3 48 48 SSE 16 26 29.59 1002 10 16.09344 0 0
8:35 pm 20:35 Sunny 71 21.7 50 10.1 48 48 SSE 16 26 29.59 1002 10 16.09344 0 0
8:55 pm 20:55 Clear 70 21.1 51 10.3 50 50 SSE 15 24 29.59 1002 10 16.09344 0 0
9:15 pm 21:15 Clear 69 20.6 51 10.5 53 53 SSE 18 30 29.59 1002 10 16.09344 0 0
9:35 pm 21:35 Clear 68 20.2 50 10.2 53 53 SSE 20 31 29.62 1003 10 16.09344 0 0
9:55 pm 21:55 Clear 67 19.6 50 10.1 54 54 SSE 20 31 29.62 1003 10 16.09344 0 0
10:15 pm 22:15 Clear 67 19.4 50 10 55 55 SSE 18 30 29.62 1003 10 16.09344 0 0
10:35 pm 22:35 Clear 66 18.9 50 10 56 56 SSE 18 30 29.62 1003 10 16.09344 0 0
10:55 pm 22:55 Clear 65 18.5 50 10 58 58 SSE 17 28 29.62 1003 10 16.09344 0 0
11:15 pm 23:15 Clear 65 18.1 50 10 59 59 SSE 17 28 29.62 1003 10 16.09344 0 0
11:35 pm 23:35 Clear 64 18 50 10 60 60 SSE 17 28 29.62 1003 10 16.09344 0 0
11:55 pm 23:55 Clear 64 17.5 50 10 62 62 SSE 17 28 29.62 1003 10 16.09344 0 0

Powered by AerisWeather